Location: Burbank
(38.7788°N, 114.0429°W)
Time: 19:54:00
(UTC+00:00)

Vanguard 2 - Pass Details

Date: 19 May 2026
Orbit: 553 x 2894 km, 32.9° (Epoch: 6 June)

Event Time Altitude Azimuth Distance (km) Brightness Sun altitude
Rises 10:59:00 0° 266° (W) 6,522 - -14.1°
Exits shadow 10:59:47 - 266° (W) 6,353 11.7 -14.0°
Reaches altitude 10° 11:03:11 10° 265° (W) 5,628 11.4 -13.5°
Maximum altitude 11:20:46 70° 187° (S) 2,881 10.2 -10.8°
Drops below altitude 10° 11:35:09 10° 107° (ESE) 4,717 12.1 -8.5°
Sets 11:38:18 0° 105° (ESE) 5,460 12.5 -8.0°
